TimeCDT,TemperatureF,Dew PointF,Humidity,Sea Level PressureIn,VisibilityMPH,Wind Direction,Wind SpeedMPH,Gust SpeedMPH,PrecipitationIn,Events,Conditions,WindDirDegrees,DateUTC
12:15 AM,52.7,50.2,91,29.98,10.0,North,8.1,-,N/A,,Overcast,10,2013-10-04 05:15:00
12:35 AM,52.7,50.2,91,29.98,10.0,NNE,9.2,-,N/A,,Overcast,20,2013-10-04 05:35:00
12:54 AM,52.7,50.4,92,29.98,10.0,NNE,6.9,-,N/A,,Overcast,20,2013-10-04 05:54:00
1:15 AM,52.7,50.2,91,29.97,10.0,NNE,10.4,-,N/A,,Overcast,30,2013-10-04 06:15:00
1:35 AM,52.7,50.4,92,29.98,10.0,NE,9.2,-,N/A,,Overcast,40,2013-10-04 06:35:00
1:54 AM,52.9,50.5,92,29.98,10.0,NNE,9.2,18.4,N/A,,Overcast,30,2013-10-04 06:54:00
2:15 AM,52.9,50.5,92,29.98,10.0,NE,9.2,16.1,N/A,,Overcast,40,2013-10-04 07:15:00
2:35 AM,52.9,50.9,93,29.99,10.0,NNE,8.1,-,N/A,,Overcast,30,2013-10-04 07:35:00
2:54 AM,53.1,50.9,92,30.00,10.0,NE,8.1,-,N/A,,Overcast,40,2013-10-04 07:54:00
3:15 AM,53.1,50.9,92,29.99,10.0,NE,9.2,-,N/A,,Overcast,40,2013-10-04 08:15:00
3:34 AM,52.9,50.7,92,29.99,10.0,NE,8.1,17.3,N/A,,Overcast,40,2013-10-04 08:34:00
3:54 AM,52.9,50.9,93,29.98,10.0,NE,8.1,-,N/A,,Overcast,40,2013-10-04 08:54:00
4:15 AM,52.7,50.5,92,29.99,10.0,NE,10.4,-,N/A,,Overcast,40,2013-10-04 09:15:00
4:34 AM,52.7,50.5,92,29.99,10.0,NE,9.2,-,N/A,,Overcast,50,2013-10-04 09:34:00
4:55 AM,52.9,50.5,92,29.99,10.0,NE,8.1,-,N/A,,Overcast,40,2013-10-04 09:55:00
5:14 AM,52.9,50.4,91,29.99,10.0,NE,8.1,-,N/A,,Overcast,50,2013-10-04 10:14:00
5:34 AM,52.9,50.4,91,30.00,10.0,NE,8.1,-,N/A,,Overcast,50,2013-10-04 10:34:00
5:55 AM,52.9,50.4,91,30.01,10.0,NE,8.1,-,N/A,Rain,Light Rain,40,2013-10-04 10:55:00
6:14 AM,52.7,50.2,91,30.01,10.0,NE,5.8,-,N/A,Rain,Light Rain,40,2013-10-04 11:14:00
6:35 AM,52.7,50.4,92,30.02,10.0,NE,6.9,-,N/A,Rain,Light Rain,40,2013-10-04 11:35:00
6:55 AM,52.7,50.4,92,30.02,10.0,NE,6.9,-,N/A,Rain,Light Rain,40,2013-10-04 11:55:00
7:14 AM,52.7,50.2,91,30.02,10.0,NNE,8.1,-,N/A,Rain,Light Rain,30,2013-10-04 12:14:00
7:35 AM,52.7,50.2,91,30.02,10.0,NNE,9.2,16.1,N/A,Rain,Light Rain,20,2013-10-04 12:35:00
7:55 AM,52.7,50.2,91,30.03,10.0,NNE,9.2,-,N/A,Rain,Light Rain,30,2013-10-04 12:55:00
8:14 AM,52.3,50.0,92,30.03,10.0,NNE,10.4,16.1,N/A,Rain,Light Rain,20,2013-10-04 13:14:00
8:35 AM,52.0,50.0,93,30.03,10.0,NE,9.2,17.3,N/A,Rain,Light Rain,40,2013-10-04 13:35:00
8:55 AM,52.0,50.0,93,30.03,10.0,NE,9.2,-,N/A,Rain,Light Rain,40,2013-10-04 13:55:00
9:14 AM,51.8,50.0,94,30.03,10.0,NE,9.2,18.4,N/A,Rain,Light Rain,40,2013-10-04 14:14:00
9:35 AM,52.2,50.2,93,30.04,10.0,NE,10.4,16.1,N/A,Rain,Light Rain,50,2013-10-04 14:35:00
9:55 AM,52.2,50.2,93,30.03,10.0,NE,10.4,18.4,N/A,Rain,Light Rain,50,2013-10-04 14:55:00
10:14 AM,52.5,50.4,92,30.02,10.0,NE,11.5,18.4,N/A,,Overcast,40,2013-10-04 15:14:00
10:34 AM,52.9,50.5,92,30.02,10.0,NE,9.2,16.1,N/A,Rain,Light Rain,40,2013-10-04 15:34:00
10:55 AM,53.8,50.9,90,30.02,10.0,NE,12.7,17.3,N/A,Rain,Light Rain,40,2013-10-04 15:55:00
11:14 AM,54.5,50.9,88,30.03,10.0,NE,12.7,19.6,N/A,Rain,Light Rain,40,2013-10-04 16:14:00
11:34 AM,54.9,50.7,86,30.02,10.0,NE,15.0,19.6,N/A,Rain,Light Rain,40,2013-10-04 16:34:00
11:55 AM,55.8,50.9,84,30.03,10.0,ENE,9.2,20.7,N/A,Rain,Light Rain,70,2013-10-04 16:55:00
12:14 PM,55.9,50.9,83,30.03,10.0,NE,9.2,20.7,N/A,Rain,Light Rain,50,2013-10-04 17:14:00
12:34 PM,56.3,50.7,82,30.04,10.0,NE,9.2,16.1,N/A,Rain,Light Rain,50,2013-10-04 17:34:00
12:55 PM,56.7,50.7,80,30.04,10.0,ENE,8.1,-,N/A,Rain,Light Rain,60,2013-10-04 17:55:00
1:14 PM,57.4,50.9,79,30.03,10.0,ENE,10.4,-,N/A,Rain,Light Rain,60,2013-10-04 18:14:00
1:34 PM,57.9,50.9,77,30.02,10.0,ENE,5.8,-,N/A,Rain,Light Rain,60,2013-10-04 18:34:00
1:55 PM,58.1,50.4,75,30.01,10.0,ENE,10.4,20.7,N/A,Rain,Light Rain,70,2013-10-04 18:55:00
2:14 PM,58.3,50.2,74,30.01,10.0,ENE,8.1,-,N/A,Rain,Light Rain,70,2013-10-04 19:14:00
2:35 PM,58.5,50.9,76,30.00,10.0,East,9.2,-,N/A,Rain,Light Rain,80,2013-10-04 19:35:00
2:55 PM,59.2,51.8,77,29.99,10.0,ENE,8.1,-,N/A,Rain,Light Rain,60,2013-10-04 19:55:00
3:14 PM,57.6,52.2,82,30.00,10.0,NE,6.9,-,N/A,Rain,Light Rain,50,2013-10-04 20:14:00
3:35 PM,56.7,52.2,85,29.99,10.0,NE,8.1,-,N/A,,Overcast,40,2013-10-04 20:35:00
3:55 PM,56.8,52.7,86,29.98,10.0,NE,8.1,-,N/A,,Overcast,50,2013-10-04 20:55:00
4:14 PM,57.0,52.5,85,29.98,10.0,NE,8.1,-,N/A,,Overcast,50,2013-10-04 21:14:00
4:35 PM,56.7,52.2,85,30.00,10.0,ENE,6.9,-,N/A,,Overcast,60,2013-10-04 21:35:00
4:55 PM,56.3,52.0,85,30.00,10.0,NE,8.1,-,N/A,,Overcast,50,2013-10-04 21:55:00
5:14 PM,55.9,51.8,86,29.99,10.0,NE,11.5,16.1,N/A,Rain,Light Rain,40,2013-10-04 22:14:00
5:35 PM,55.6,51.8,87,29.99,10.0,NE,9.2,16.1,N/A,Rain,Light Rain,40,2013-10-04 22:35:00
5:55 PM,55.4,51.8,88,29.99,10.0,NE,9.2,16.1,N/A,Rain,Light Rain,40,2013-10-04 22:55:00
6:14 PM,55.4,51.8,88,30.00,10.0,NE,9.2,17.3,N/A,Rain,Light Rain,40,2013-10-04 23:14:00
6:35 PM,54.9,51.4,88,29.99,10.0,NE,9.2,17.3,N/A,Rain,Light Rain,40,2013-10-04 23:35:00
6:55 PM,54.5,51.3,89,29.99,10.0,NE,9.2,19.6,N/A,Rain,Light Rain,50,2013-10-04 23:55:00
7:14 PM,53.8,51.3,91,29.98,10.0,NE,13.8,17.3,N/A,Rain,Light Rain,40,2013-10-05 00:14:00
7:35 PM,53.4,51.3,92,29.97,10.0,NE,12.7,18.4,N/A,Rain,Light Rain,40,2013-10-05 00:35:00
7:55 PM,52.9,51.1,94,29.98,10.0,NE,10.4,19.6,N/A,Rain,Light Rain,50,2013-10-05 00:55:00
8:14 PM,52.7,50.9,94,29.98,10.0,NE,12.7,19.6,N/A,Rain,Light Rain,50,2013-10-05 01:14:00
8:35 PM,52.3,50.9,95,29.98,10.0,NE,10.4,21.9,N/A,Rain,Light Rain,50,2013-10-05 01:35:00
8:55 PM,52.3,50.9,95,29.98,10.0,ENE,9.2,-,N/A,,Overcast,60,2013-10-05 01:55:00
9:14 PM,52.3,50.9,95,29.98,10.0,NE,9.2,16.1,N/A,Rain,Light Rain,50,2013-10-05 02:14:00
9:35 PM,52.7,50.9,94,29.97,10.0,ENE,9.2,-,N/A,Rain,Light Rain,60,2013-10-05 02:35:00
9:55 PM,52.7,50.9,94,29.96,10.0,ENE,11.5,17.3,N/A,Rain,Light Rain,60,2013-10-05 02:55:00
10:14 PM,52.7,50.9,94,29.94,10.0,NE,11.5,18.4,N/A,Rain,Light Rain,50,2013-10-05 03:14:00
10:35 PM,52.7,50.9,94,29.93,10.0,NE,13.8,21.9,0.02,Rain,Light Rain,50,2013-10-05 03:35:00
10:54 PM,52.7,51.1,94,29.92,10.0,NE,11.5,19.6,0.02,Rain,Light Rain,50,2013-10-05 03:54:00
11:14 PM,52.7,51.1,94,29.92,10.0,ENE,11.5,17.3,N/A,Rain,Light Rain,60,2013-10-05 04:14:00
11:35 PM,52.7,51.3,95,29.92,10.0,ENE,12.7,19.6,N/A,Rain-Thunderstorm,Light Thunderstorms and Rain,60,2013-10-05 04:35:00
11:54 PM,52.9,51.4,95,29.91,10.0,ENE,9.2,19.6,N/A,Rain-Thunderstorm,Light Thunderstorms and Rain,60,2013-10-05 04:54:00